sat.trackr.live / text

‹ back to catalog

STARLINK-31230

NORAD 58890 · 2024-020Q

PAYLOAD ACTIVE UNKNOWN

§ Identity

Operator
Country
US
Launch date
2024-01-29
Launch site
AFWTR
Launch vehicle
Mass (kg)
RCS (m²)

Purposes: comms

External: N2YO · Heavens-Above · Gunter

§ Orbital elements

Epoch: 2026-05-25T04:53:25.595808Z

Period
93.85 min
Inclination
53.1615°
Eccentricity
0.0001024
Mean motion
15.34389966 rev/d
Perigee alt
462.0 km
Apogee alt
463.4 km
Semi-major
6,840.9 km
B*
3.7739e-5
RAAN
324.3600°
Arg perigee
90.5447°
Mean anomaly
269.5672°
Rev number
12,982

§ Raw data

STARLINK-312301 58890U 24020Q   26145.20376847  .00000899  00000+0  37739-4 0  99912 58890  53.1615 324.3600 0001024  90.5447 269.5672 15.34389966129820

JSON: /api/v1/satellites/58890 · /tle

For live sub-satellite position, see the globe view (requires WebGL).

§ Visibility from observer

Set your observer location to see the next 7 days of passes ≥ 10°. The values pass through the URL so the page stays shareable.

No JS? Fill the form by hand. The geolocation button needs JavaScript.